Time,TemperatureF,DewpointF,PressureIn,WindDirection,WindDirectionDegrees,WindSpeedMPH,WindSpeedGustMPH,Humidity,HourlyPrecipIn,Conditions,Clouds,dailyrainin,SoftwareType,DateUTC
2013-03-18 00:01:00,53.0,45.0,29.75,SSE,153,6.0,9.0,75,0.00,,,0.00,,2013-03-18 07:01:00,
2013-03-18 00:12:00,53.0,45.0,29.75,SSE,153,6.0,9.0,75,0.00,,,0.00,,2013-03-18 07:12:00,
2013-03-18 00:22:00,52.0,44.0,29.75,SE,146,11.0,14.0,75,0.00,,,0.00,,2013-03-18 07:22:00,
2013-03-18 00:32:00,52.0,44.0,29.75,SE,146,11.0,14.0,75,0.00,,,0.00,,2013-03-18 07:32:00,
2013-03-18 00:42:00,52.0,44.0,29.75,SE,146,11.0,14.0,75,0.00,,,0.00,,2013-03-18 07:42:00,
2013-03-18 00:52:00,52.0,44.0,29.75,SE,146,11.0,14.0,75,0.00,,,0.00,,2013-03-18 07:52:00,
2013-03-18 01:01:00,53.0,45.0,29.74,SSE,152,7.0,8.0,73,0.00,,,0.00,,2013-03-18 08:01:00,
2013-03-18 01:12:00,53.0,45.0,29.74,SSE,152,7.0,8.0,73,0.00,,,0.00,,2013-03-18 08:12:00,
2013-03-18 01:22:00,53.0,45.0,29.74,SSE,152,7.0,8.0,73,0.00,,,0.00,,2013-03-18 08:22:00,
2013-03-18 01:32:00,53.0,45.0,29.74,SSE,152,7.0,8.0,73,0.00,,,0.00,,2013-03-18 08:32:00,
2013-03-18 02:02:00,53.0,45.0,29.75,SSE,156,3.0,6.0,74,0.00,,,0.00,,2013-03-18 09:02:00,
2013-03-18 02:12:00,53.0,45.0,29.75,SSE,156,3.0,6.0,74,0.00,,,0.00,,2013-03-18 09:12:00,
2013-03-18 02:22:00,55.0,45.0,29.75,SSE,156,4.0,6.0,70,0.00,,,0.00,,2013-03-18 09:22:00,
2013-03-18 02:32:00,55.0,45.0,29.75,SSE,156,4.0,6.0,70,0.00,,,0.00,,2013-03-18 09:32:00,
2013-03-18 02:42:00,55.0,45.0,29.75,SSE,156,4.0,6.0,70,0.00,,,0.00,,2013-03-18 09:42:00,
2013-03-18 02:53:00,54.0,45.0,29.76,SSE,156,4.0,7.0,71,0.00,,,0.00,,2013-03-18 09:53:00,
2013-03-18 03:02:00,54.0,44.0,29.76,SSE,156,1.0,5.0,69,0.00,,,0.00,,2013-03-18 10:02:00,
2013-03-18 03:12:00,54.0,44.0,29.76,SSE,156,1.0,5.0,69,0.00,,,0.00,,2013-03-18 10:12:00,
2013-03-18 03:23:00,54.0,44.0,29.76,SSE,156,1.0,5.0,69,0.00,,,0.00,,2013-03-18 10:23:00,
2013-03-18 03:33:00,54.0,44.0,29.76,SSE,156,1.0,5.0,69,0.00,,,0.00,,2013-03-18 10:33:00,
2013-03-18 03:41:00,54.0,44.0,29.76,SSE,156,1.0,5.0,69,0.00,,,0.00,,2013-03-18 10:41:00,
2013-03-18 04:52:00,51.0,44.0,29.73,North,0,0.0,4.0,78,0.00,,,0.00,,2013-03-18 11:52:00,
2013-03-18 05:02:00,50.0,45.0,29.72,North,0,0.0,4.0,82,0.00,,,0.00,,2013-03-18 12:02:00,
2013-03-18 05:12:00,50.0,45.0,29.72,North,0,0.0,4.0,82,0.00,,,0.00,,2013-03-18 12:12:00,
2013-03-18 05:22:00,50.0,45.0,29.73,North,0,0.0,0.0,82,0.00,,,0.00,,2013-03-18 12:22:00,
2013-03-18 05:32:00,50.0,45.0,29.73,North,0,0.0,0.0,82,0.00,,,0.00,,2013-03-18 12:32:00,
2013-03-18 05:42:00,50.0,45.0,29.73,North,0,0.0,0.0,82,0.00,,,0.00,,2013-03-18 12:42:00,
2013-03-18 05:52:00,49.0,45.0,29.74,North,0,0.0,0.0,85,0.00,,,0.00,,2013-03-18 12:52:00,
2013-03-18 06:01:00,50.0,45.0,29.74,SSW,196,1.0,2.0,83,0.00,,,0.00,,2013-03-18 13:01:00,
2013-03-18 06:12:00,50.0,45.0,29.74,SSW,196,1.0,2.0,83,0.00,,,0.00,,2013-03-18 13:12:00,
2013-03-18 06:21:00,49.0,45.0,29.75,SSW,196,1.0,2.0,86,0.00,,,0.00,,2013-03-18 13:21:00,
2013-03-18 06:32:00,49.0,45.0,29.75,SSW,196,1.0,2.0,86,0.00,,,0.00,,2013-03-18 13:32:00,
2013-03-18 06:42:00,49.0,45.0,29.75,SSW,196,1.0,2.0,86,0.00,,,0.00,,2013-03-18 13:42:00,
2013-03-18 06:52:00,50.0,45.0,29.76,North,0,0.0,0.0,83,0.00,,,0.00,,2013-03-18 13:52:00,
2013-03-18 07:02:00,49.0,45.0,29.76,North,0,0.0,4.0,86,0.00,,,0.00,,2013-03-18 14:02:00,
2013-03-18 07:12:00,49.0,45.0,29.76,North,0,0.0,4.0,86,0.00,,,0.00,,2013-03-18 14:12:00,
2013-03-18 07:21:00,49.0,45.0,29.76,North,0,0.0,4.0,86,0.00,,,0.00,,2013-03-18 14:21:00,
2013-03-18 07:32:00,49.0,45.0,29.76,North,0,0.0,4.0,86,0.00,,,0.00,,2013-03-18 14:32:00,
2013-03-18 07:42:00,49.0,45.0,29.76,North,0,0.0,4.0,86,0.00,,,0.00,,2013-03-18 14:42:00,
2013-03-18 07:52:00,47.0,44.0,29.78,South,175,2.0,5.0,90,0.00,,,0.00,,2013-03-18 14:52:00,
2013-03-18 08:02:00,46.0,43.0,29.79,North,0,0.0,4.0,90,0.00,,,0.00,,2013-03-18 15:02:00,
2013-03-18 08:12:00,46.0,43.0,29.79,North,0,0.0,4.0,90,0.00,,,0.00,,2013-03-18 15:12:00,
2013-03-18 08:22:00,46.0,43.0,29.79,North,0,0.0,4.0,90,0.00,,,0.00,,2013-03-18 15:22:00,
2013-03-18 08:33:00,45.0,43.0,29.80,West,277,8.0,10.0,93,0.00,,,0.00,,2013-03-18 15:33:00,
2013-03-18 08:42:00,45.0,43.0,29.80,West,277,8.0,10.0,93,0.00,,,0.00,,2013-03-18 15:42:00,
2013-03-18 08:52:00,45.0,43.0,29.80,WSW,254,5.0,8.0,93,0.00,,,0.00,,2013-03-18 15:52:00,
2013-03-18 09:02:00,48.0,47.0,29.80,North,0,0.0,1.0,95,0.00,,,0.00,,2013-03-18 16:02:00,
2013-03-18 09:12:00,48.0,47.0,29.80,North,0,0.0,1.0,95,0.00,,,0.00,,2013-03-18 16:12:00,
2013-03-18 09:22:00,48.0,47.0,29.81,North,0,0.0,3.0,95,0.00,,,0.00,,2013-03-18 16:22:00,
2013-03-18 09:32:00,48.0,47.0,29.81,North,0,0.0,3.0,95,0.00,,,0.00,,2013-03-18 16:32:00,
2013-03-18 09:42:00,48.0,47.0,29.81,North,0,0.0,3.0,95,0.00,,,0.00,,2013-03-18 16:42:00,
2013-03-18 09:52:00,48.0,46.0,29.81,North,0,0.0,0.0,94,0.00,,,0.00,,2013-03-18 16:52:00,
2013-03-18 10:02:00,47.0,45.0,29.84,WSW,238,1.0,8.0,94,0.00,,,0.00,,2013-03-18 17:02:00,
2013-03-18 10:12:00,47.0,45.0,29.84,WSW,238,1.0,8.0,94,0.00,,,0.00,,2013-03-18 17:12:00,
2013-03-18 10:21:00,47.0,46.0,29.83,West,270,6.0,8.0,95,0.00,,,0.00,,2013-03-18 17:21:00,
2013-03-18 10:32:00,47.0,46.0,29.83,West,270,6.0,8.0,95,0.00,,,0.00,,2013-03-18 17:32:00,
2013-03-18 10:42:00,47.0,46.0,29.83,West,270,6.0,8.0,95,0.00,,,0.00,,2013-03-18 17:42:00,
2013-03-18 10:52:00,47.0,45.0,29.84,North,0,0.0,4.0,94,0.00,,,0.00,,2013-03-18 17:52:00,
2013-03-18 11:01:00,47.0,46.0,29.84,North,0,0.0,6.0,95,0.00,,,0.00,,2013-03-18 18:01:00,
2013-03-18 11:12:00,47.0,46.0,29.84,North,0,0.0,6.0,95,0.00,,,0.00,,2013-03-18 18:12:00,
2013-03-18 11:21:00,48.0,47.0,29.84,North,0,0.0,0.0,95,0.00,,,0.00,,2013-03-18 18:21:00,
2013-03-18 11:32:00,48.0,47.0,29.84,North,0,0.0,0.0,95,0.00,,,0.00,,2013-03-18 18:32:00,
2013-03-18 11:42:00,48.0,47.0,29.84,North,0,0.0,0.0,95,0.00,,,0.00,,2013-03-18 18:42:00,
2013-03-18 11:52:00,49.0,48.0,29.84,North,0,0.0,2.0,95,0.00,,,0.00,,2013-03-18 18:52:00,
2013-03-18 12:01:00,51.0,50.0,29.84,North,0,0.0,5.0,95,0.00,,,0.00,,2013-03-18 19:01:00,
2013-03-18 12:12:00,51.0,50.0,29.84,North,0,0.0,5.0,95,0.00,,,0.00,,2013-03-18 19:12:00,
2013-03-18 12:22:00,51.0,49.0,29.84,WSW,242,1.0,6.0,93,0.00,,,0.00,,2013-03-18 19:22:00,
2013-03-18 12:32:00,51.0,49.0,29.84,WSW,242,1.0,6.0,93,0.00,,,0.00,,2013-03-18 19:32:00,
2013-03-18 12:42:00,51.0,49.0,29.84,WSW,242,1.0,6.0,93,0.00,,,0.00,,2013-03-18 19:42:00,
2013-03-18 12:52:00,52.0,49.0,29.85,SSE,158,2.0,9.0,88,0.00,,,0.00,,2013-03-18 19:52:00,
2013-03-18 13:02:00,52.0,48.0,29.85,SSE,166,2.0,7.0,87,0.00,,,0.00,,2013-03-18 20:02:00,
2013-03-18 13:12:00,52.0,48.0,29.85,SSE,166,2.0,7.0,87,0.00,,,0.00,,2013-03-18 20:12:00,
2013-03-18 13:22:00,52.0,48.0,29.85,SSE,166,2.0,7.0,87,0.00,,,0.00,,2013-03-18 20:22:00,
2013-03-18 13:32:00,52.0,48.0,29.85,SSE,166,2.0,7.0,87,0.00,,,0.00,,2013-03-18 20:32:00,
2013-03-18 13:42:00,52.0,48.0,29.85,SSE,166,2.0,7.0,87,0.00,,,0.00,,2013-03-18 20:42:00,
2013-03-18 13:52:00,54.0,49.0,29.83,SSE,160,1.0,4.0,83,0.00,,,0.00,,2013-03-18 20:52:00,
2013-03-18 14:02:00,53.0,48.0,29.83,SSE,168,4.0,9.0,84,0.00,,,0.00,,2013-03-18 21:02:00,
2013-03-18 14:11:00,53.0,48.0,29.83,SSE,168,4.0,9.0,84,0.00,,,0.00,,2013-03-18 21:11:00,
2013-03-18 14:21:00,53.0,48.0,29.83,SSE,159,4.0,9.0,82,0.00,,,0.00,,2013-03-18 21:21:00,
2013-03-18 14:32:00,53.0,48.0,29.83,SSE,159,4.0,9.0,82,0.00,,,0.00,,2013-03-18 21:32:00,
2013-03-18 14:42:00,53.0,48.0,29.83,SSE,159,4.0,9.0,82,0.00,,,0.00,,2013-03-18 21:42:00,
2013-03-18 14:52:00,53.0,49.0,29.83,South,173,3.0,11.0,85,0.00,,,0.00,,2013-03-18 21:52:00,
2013-03-18 15:02:00,52.0,47.0,29.83,South,169,1.0,5.0,84,0.00,,,0.00,,2013-03-18 22:02:00,
2013-03-18 15:12:00,52.0,47.0,29.83,South,169,1.0,5.0,84,0.00,,,0.00,,2013-03-18 22:12:00,
2013-03-18 15:22:00,52.0,48.0,29.82,North,0,0.0,5.0,86,0.00,,,0.00,,2013-03-18 22:22:00,
2013-03-18 15:32:00,52.0,48.0,29.82,North,0,0.0,5.0,86,0.00,,,0.00,,2013-03-18 22:32:00,
2013-03-18 15:41:00,52.0,48.0,29.82,North,0,0.0,5.0,86,0.00,,,0.00,,2013-03-18 22:41:00,
2013-03-18 15:52:00,54.0,49.0,29.81,North,0,0.0,2.0,83,0.00,,,0.00,,2013-03-18 22:52:00,
2013-03-18 16:02:00,55.0,49.0,29.81,North,0,0.0,0.0,80,0.00,,,0.00,,2013-03-18 23:02:00,
2013-03-18 16:12:00,55.0,49.0,29.81,North,0,0.0,0.0,80,0.00,,,0.00,,2013-03-18 23:12:00,
2013-03-18 16:22:00,54.0,49.0,29.81,North,0,0.0,2.0,82,0.00,,,0.00,,2013-03-18 23:22:00,
2013-03-18 16:32:00,54.0,49.0,29.81,North,0,0.0,2.0,82,0.00,,,0.00,,2013-03-18 23:32:00,
2013-03-18 16:41:00,54.0,49.0,29.81,North,0,0.0,2.0,82,0.00,,,0.00,,2013-03-18 23:41:00,
2013-03-18 16:52:00,52.0,48.0,29.81,North,0,0.0,4.0,85,0.00,,,0.00,,2013-03-18 23:52:00,
2013-03-18 17:01:00,53.0,49.0,29.81,NE,56,4.0,7.0,87,0.00,,,0.00,,2013-03-19 00:01:00,
2013-03-18 17:12:00,53.0,49.0,29.81,NE,56,4.0,7.0,87,0.00,,,0.00,,2013-03-19 00:12:00,
2013-03-18 17:22:00,55.0,48.0,29.80,North,0,0.0,2.0,78,0.00,,,0.00,,2013-03-19 00:22:00,
2013-03-18 17:32:00,55.0,48.0,29.80,North,0,0.0,2.0,78,0.00,,,0.00,,2013-03-19 00:32:00,
2013-03-18 17:42:00,55.0,48.0,29.80,North,0,0.0,2.0,78,0.00,,,0.00,,2013-03-19 00:42:00,
2013-03-18 17:52:00,54.0,49.0,29.80,NE,38,4.0,6.0,83,0.00,,,0.00,,2013-03-19 00:52:00,
2013-03-18 18:01:00,52.0,48.0,29.80,NE,56,1.0,5.0,86,0.00,,,0.00,,2013-03-19 01:01:00,
2013-03-18 18:11:00,52.0,48.0,29.80,NE,56,1.0,5.0,86,0.00,,,0.00,,2013-03-19 01:11:00,
2013-03-18 18:21:00,49.0,46.0,29.82,South,184,5.0,11.0,89,0.00,,,0.00,,2013-03-19 01:21:00,
2013-03-18 18:32:00,49.0,46.0,29.82,South,184,5.0,11.0,89,0.00,,,0.00,,2013-03-19 01:32:00,
2013-03-18 18:42:00,49.0,46.0,29.82,South,184,5.0,11.0,89,0.00,,,0.00,,2013-03-19 01:42:00,
2013-03-18 18:52:00,49.0,47.0,29.83,West,261,5.0,10.0,92,0.00,,,0.00,,2013-03-19 01:52:00,
2013-03-18 19:01:00,50.0,47.0,29.83,WSW,251,3.0,10.0,90,0.00,,,0.00,,2013-03-19 02:01:00,
2013-03-18 19:12:00,50.0,47.0,29.83,WSW,251,3.0,10.0,90,0.00,,,0.00,,2013-03-19 02:12:00,
2013-03-18 19:21:00,49.0,47.0,29.82,WSW,254,6.0,7.0,93,0.00,,,0.00,,2013-03-19 02:21:00,
2013-03-18 19:32:00,49.0,47.0,29.82,WSW,254,6.0,7.0,93,0.00,,,0.00,,2013-03-19 02:32:00,
2013-03-18 19:41:00,49.0,47.0,29.82,WSW,254,6.0,7.0,93,0.00,,,0.00,,2013-03-19 02:41:00,
2013-03-18 19:52:00,49.0,46.0,29.83,West,261,4.0,7.0,91,0.00,,,0.00,,2013-03-19 02:52:00,
2013-03-18 20:01:00,49.0,47.0,29.83,NW,306,6.0,9.0,92,0.00,,,0.00,,2013-03-19 03:01:00,
2013-03-18 20:11:00,49.0,47.0,29.83,NW,306,6.0,9.0,92,0.00,,,0.00,,2013-03-19 03:11:00,
2013-03-18 20:21:00,49.0,47.0,29.83,NNW,332,6.0,10.0,93,0.00,,,0.00,,2013-03-19 03:21:00,
2013-03-18 20:32:00,49.0,47.0,29.83,NNW,332,6.0,10.0,93,0.00,,,0.00,,2013-03-19 03:32:00,
2013-03-18 20:42:00,49.0,47.0,29.83,NNW,332,6.0,10.0,93,0.00,,,0.00,,2013-03-19 03:42:00,
2013-03-18 20:53:00,48.0,46.0,29.83,NNW,333,5.0,10.0,93,0.00,,,0.00,,2013-03-19 03:53:00,
2013-03-18 21:02:00,50.0,49.0,29.85,WNW,302,5.0,7.0,95,0.00,,,0.00,,2013-03-19 04:02:00,
2013-03-18 21:13:00,50.0,49.0,29.85,WNW,302,5.0,7.0,95,0.00,,,0.00,,2013-03-19 04:13:00,
2013-03-18 21:22:00,53.0,49.0,29.85,WNW,298,3.0,5.0,85,0.00,,,0.00,,2013-03-19 04:22:00,
2013-03-18 21:33:00,53.0,49.0,29.85,WNW,298,3.0,5.0,85,0.00,,,0.00,,2013-03-19 04:33:00,
2013-03-18 21:42:00,53.0,49.0,29.85,WNW,298,3.0,5.0,85,0.00,,,0.00,,2013-03-19 04:42:00,
2013-03-18 21:52:00,54.0,49.0,29.86,North,0,0.0,6.0,83,0.00,,,0.00,,2013-03-19 04:52:00,
2013-03-18 22:02:00,53.0,48.0,29.86,North,0,0.0,1.0,84,0.00,,,0.00,,2013-03-19 05:02:00,
2013-03-18 22:11:00,53.0,48.0,29.86,North,0,0.0,1.0,84,0.00,,,0.00,,2013-03-19 05:11:00,
2013-03-18 22:22:00,54.0,49.0,29.86,West,271,3.0,5.0,83,0.00,,,0.00,,2013-03-19 05:22:00,
2013-03-18 22:32:00,54.0,49.0,29.86,West,271,3.0,5.0,83,0.00,,,0.00,,2013-03-19 05:32:00,
2013-03-18 22:42:00,54.0,49.0,29.86,West,271,3.0,5.0,83,0.00,,,0.00,,2013-03-19 05:42:00,
2013-03-18 22:52:00,55.0,48.0,29.85,North,0,0.0,7.0,78,0.00,,,0.00,,2013-03-19 05:52:00,
2013-03-18 23:01:00,56.0,47.0,29.86,NNW,343,3.0,6.0,72,0.00,,,0.00,,2013-03-19 06:01:00,
2013-03-18 23:12:00,56.0,47.0,29.86,NNW,343,3.0,6.0,72,0.00,,,0.00,,2013-03-19 06:12:00,
2013-03-18 23:21:00,54.0,47.0,29.86,ESE,107,4.0,6.0,77,0.00,,,0.00,,2013-03-19 06:21:00,
2013-03-18 23:32:00,54.0,47.0,29.86,ESE,107,4.0,6.0,77,0.00,,,0.00,,2013-03-19 06:32:00,
2013-03-18 23:42:00,54.0,47.0,29.86,ESE,107,4.0,6.0,77,0.00,,,0.00,,2013-03-19 06:42:00,
2013-03-18 23:52:00,52.0,47.0,29.86,ESE,117,4.0,9.0,84,0.00,,,0.00,,2013-03-19 06:52:00,